| time (UTC) | temp F | wind direction | speed MPH | gust MPH | rain 1hr in | rain 24hr in | rain mn in | humidity % | barometer mb |
| 20260505223012 | 47 | 353 | 0.0 | 4.0 | 0.00 | 0.00 | 0.00 | 66 | 1004.8 |
| 20260505221510 | 49 | 18 | 3.0 | 8.0 | 0.00 | 0.00 | 0.00 | 59 | 1004.9 |
| 20260505220009 | 52 | 71 | 0.0 | 2.0 | 0.00 | 0.00 | 0.00 | 49 | 1004.6 |
| 20260505214508 | 52 | 143 | 0.0 | 1.0 | 0.00 | 0.00 | 0.00 | 49 | 1004.4 |
| 20260505213009 | 53 | 60 | 0.0 | 2.0 | 0.00 | 0.00 | 0.00 | 49 | 1004.5 |
| 20260505211508 | 52 | 122 | 0.0 | 3.0 | 0.00 | 0.00 | 0.00 | 51 | 1004.7 |
| 20260505210004 | 52 | 329 | 0.0 | 2.0 | 0.00 | 0.00 | 0.00 | 53 | 1004.8 |
| 20260505204502 | 52 | 349 | 0.0 | 6.0 | 0.00 | 0.00 | 0.00 | 51 | 1005.1 |
| 20260505203059 | 51 | 344 | 0.0 | 1.0 | 0.00 | 0.00 | 0.00 | 53 | 1005.5 |
| 20260505201559 | 50 | 24 | 0.0 | 1.0 | 0.00 | 0.00 | 0.00 | 55 | 1005.8 |
| 20260505200059 | 49 | 15 | 0.0 | 4.0 | 0.00 | 0.00 | 0.00 | 57 | 1006.0 |
| 20260505194558 | 50 | 201 | 1.0 | 3.0 | 0.00 | 0.00 | 0.00 | 54 | 1006.1 |
| 20260505193057 | 50 | 200 | 1.0 | 6.0 | 0.00 | 0.00 | 0.00 | 57 | 1005.9 |
| 20260505191604 | 49 | 106 | 0.0 | 6.0 | 0.00 | 0.00 | 0.00 | 53 | 1006.0 |
| 20260505190111 | 50 | 288 | 0.0 | 2.0 | 0.00 | 0.00 | 0.00 | 52 | 1006.1 |
| 20260505184555 | 48 | 165 | 1.0 | 4.0 | 0.00 | 0.00 | 0.00 | 54 | 1006.2 |
| 20260505183055 | 49 | 45 | 0.0 | 6.0 | 0.00 | 0.00 | 0.00 | 49 | 1006.2 |
| 20260505181636 | 49 | 178 | 0.0 | 7.0 | 0.00 | 0.00 | 0.00 | 47 | 1005.8 |
| 20260505180103 | 49 | 155 | 0.0 | 8.0 | 0.00 | 0.00 | 0.00 | 48 | 1005.7 |
| 20260505174553 | 50 | 195 | 0.0 | 2.0 | 0.00 | 0.00 | 0.00 | 43 | 1005.8 |
| 20260505173052 | 51 | 178 | 0.0 | 0.0 | 0.00 | 0.00 | 0.00 | 45 | 1005.2 |
| 20260505171559 | 50 | 131 | 0.0 | 0.0 | 0.00 | 0.00 | 0.00 | 44 | 1005.3 |
| 20260505170052 | 51 | 100 | 0.0 | 2.0 | 0.00 | 0.00 | 0.00 | 43 | 1005.3 |
| 20260505164549 | 49 | 213 | 0.0 | 1.0 | 0.00 | 0.00 | 0.00 | 47 | 1005.3 |
| 20260505163047 | 48 | 312 | 2.0 | 4.0 | 0.00 | 0.00 | 0.00 | 49 | 1005.9 |
| 20260505161547 | 47 | 75 | 0.0 | 2.0 | 0.00 | 0.00 | 0.00 | 53 | 1006.1 |
| 20260505160141 | 46 | 165 | 0.0 | 2.0 | 0.00 | 0.00 | 0.00 | 55 | 1006.4 |
| 20260505153045 | 45 | 86 | 0.0 | 2.0 | 0.00 | 0.00 | 0.00 | 63 | 1007.0 |
| 20260505151541 | 45 | 161 | 0.0 | 2.0 | 0.00 | 0.00 | 0.00 | 61 | 1006.8 |
| 20260505124524 | 0 | 0.0 | 0.0 | 0.00 | 0.00 | 0.00 | 1006.7 | ||
| 20260505123022 | 0 | 0.0 | 0.0 | 0.00 | 0.00 | 0.00 | 1006.8 | ||
| 20260505121516 | 38 | 334 | 0.0 | 0.0 | 0.00 | 0.00 | 0.00 | 68 | 1007.4 |
| 20260505120014 | 38 | 334 | 0.0 | 0.0 | 0.00 | 0.00 | 0.00 | 68 | 1007.1 |
| 20260505114512 | 38 | 334 | 0.0 | 0.0 | 0.00 | 0.00 | 0.00 | 67 | 1007.1 |
| 20260505113012 | 39 | 334 | 0.0 | 0.0 | 0.00 | 0.00 | 0.00 | 66 | 1007.1 |
| 20260505111508 | 41 | 334 | 0.0 | 0.0 | 0.00 | 0.00 | 0.00 | 62 | 1007.0 |
| 20260505101602 | 44 | 119 | 0.0 | 0.0 | 0.00 | 0.00 | 0.00 | 55 | 1007.2 |
| 20260505100054 | 45 | 134 | 0.0 | 0.0 | 0.00 | 0.00 | 0.00 | 55 | 1007.1 |
| 20260505094551 | 45 | 110 | 0.0 | 1.0 | 0.00 | 0.00 | 0.00 | 53 | 1007.3 |
| 20260505093050 | 46 | 150 | 0.0 | 1.0 | 0.00 | 0.00 | 0.00 | 53 | 1006.9 |
| 20260505091554 | 46 | 126 | 0.0 | 0.0 | 0.00 | 0.00 | 0.00 | 52 | 1007.1 |
| 20260505090045 | 47 | 172 | 0.0 | 5.0 | 0.00 | 0.00 | 0.00 | 51 | 1007.4 |
| 20260505084551 | 47 | 141 | 0.0 | 3.0 | 0.00 | 0.00 | 0.00 | 50 | 1008.0 |
| 20260505083054 | 47 | 73 | 0.0 | 4.0 | 0.00 | 0.00 | 0.00 | 50 | 1008.6 |
| 20260505081539 | 47 | 70 | 0.0 | 1.0 | 0.00 | 0.00 | 0.00 | 49 | 1008.6 |
| 20260505080038 | 47 | 160 | 0.0 | 0.0 | 0.00 | 0.00 | 0.00 | 49 | 1009.2 |
| 20260505074537 | 46 | 340 | 0.0 | 0.0 | 0.00 | 0.00 | 0.00 | 49 | 1009.4 |
| 20260505073037 | 48 | 158 | 0.0 | 4.0 | 0.00 | 0.00 | 0.00 | 45 | 1009.6 |
| 20260505071534 | 48 | 155 | 0.0 | 5.0 | 0.00 | 0.00 | 0.00 | 44 | 1009.4 |
| 20260505070034 | 49 | 126 | 1.0 | 3.0 | 0.00 | 0.00 | 0.00 | 43 | 1009.3 |
| 20260505064541 | 49 | 136 | 0.0 | 4.0 | 0.00 | 0.00 | 0.00 | 41 | 1009.1 |
| 20260505063032 | 49 | 169 | 0.0 | 4.0 | 0.00 | 0.00 | 0.00 | 41 | 1008.8 |
| 20260505061529 | 49 | 88 | 0.0 | 5.0 | 0.00 | 0.00 | 0.00 | 41 | 1009.2 |
| 20260505060025 | 46 | 170 | 0.0 | 2.0 | 0.00 | 0.00 | 0.00 | 48 | 1009.3 |
| 20260505054542 | 46 | 73 | 0.0 | 0.0 | 0.00 | 0.00 | 0.00 | 50 | 1009.2 |
| 20260505053025 | 47 | 135 | 0.0 | 0.0 | 0.00 | 0.00 | 0.00 | 48 | 1009.2 |
| 20260505051524 | 50 | 327 | 0.0 | 0.0 | 0.00 | 0.00 | 0.00 | 38 | 1009.0 |
| 20260505041521 | 50 | 131 | 0.0 | 0.0 | 0.00 | 0.00 | 0.00 | 45 | 1008.7 |
| 20260505040021 | 50 | 150 | 0.0 | 0.0 | 0.00 | 0.00 | 0.00 | 45 | 1008.7 |
| 20260505034526 | 51 | 162 | 0.0 | 0.0 | 0.00 | 0.00 | 0.00 | 43 | 1008.6 |
| 20260505033020 | 51 | 165 | 0.0 | 0.0 | 0.00 | 0.00 | 0.00 | 42 | 1008.5 |
| 20260505031519 | 52 | 152 | 0.0 | 0.0 | 0.00 | 0.00 | 0.00 | 42 | 1008.4 |
| 20260505030036 | 53 | 147 | 0.0 | 0.0 | 0.00 | 0.00 | 0.00 | 40 | 1008.4 |
| 20260505024518 | 53 | 177 | 0.0 | 0.0 | 0.00 | 0.00 | 0.00 | 38 | 1008.2 |
| 20260505023017 | 54 | 148 | 0.0 | 0.0 | 0.00 | 0.00 | 0.00 | 36 | 1008.2 |
| 20260505021520 | 54 | 143 | 0.0 | 0.0 | 0.00 | 0.00 | 0.00 | 36 | 1008.1 |
| 20260505020018 | 55 | 151 | 0.0 | 3.0 | 0.00 | 0.00 | 0.00 | 33 | 1008.2 |
| 20260505014519 | 56 | 160 | 0.0 | 1.0 | 0.00 | 0.00 | 0.00 | 31 | 1008.2 |
| 20260505013019 | 56 | 160 | 0.0 | 2.0 | 0.00 | 0.00 | 0.00 | 30 | 1008.2 |
| 20260505011515 | 57 | 111 | 0.0 | 5.0 | 0.00 | 0.00 | 0.00 | 28 | 1007.9 |
| 20260505010015 | 58 | 153 | 1.0 | 4.0 | 0.00 | 0.00 | 0.00 | 29 | 1007.8 |
| 20260505004528 | 58 | 158 | 0.0 | 2.0 | 0.00 | 0.00 | 0.00 | 26 | 1007.8 |
| 20260505003014 | 59 | 103 | 0.0 | 5.0 | 0.00 | 0.00 | 0.00 | 25 | 1007.9 |
| 20260505001515 | 59 | 168 | 0.0 | 9.0 | 0.00 | 0.00 | 0.00 | 24 | 1007.8 |
| 20260505000016 | 59 | 110 | 0.0 | 6.0 | 0.00 | 0.00 | 0.00 | 24 | 1007.8 |
| 20260504234515 | 59 | 218 | 1.0 | 10.0 | 0.00 | 0.00 | 0.00 | 23 | 1007.7 |
| 20260504233011 | 60 | 47 | 0.0 | 4.0 | 0.00 | 0.00 | 0.00 | 23 | 1007.8 |
| 20260504231510 | 60 | 127 | 0.0 | 3.0 | 0.00 | 0.00 | 0.00 | 23 | 1007.7 |
| 20260504230010 | 61 | 174 | 0.0 | 9.0 | 0.00 | 0.00 | 0.00 | 23 | 1007.5 |
| 20260504224507 | 61 | 125 | 0.0 | 6.0 | 0.00 | 0.00 | 0.00 | 23 | 1007.8 |